| time (UTC) | temp F | wind direction | speed knots | gust knots | rain 1hr in | rain 24hr in | rain mn in | humidity % | barometer mb |
| 20260504045026 | 45 | 0.0 | 0.0 | 0.00 | 0.00 | 0.00 | 10 | 1030.5 | |
| 20260504044027 | 44 | 0.0 | 0.0 | 0.00 | 0.00 | 0.00 | 10 | 1030.6 | |
| 20260504043026 | 43 | 0.0 | 0.0 | 0.00 | 0.00 | 0.00 | 10 | 1030.5 | |
| 20260504042026 | 42 | 0.0 | 0.0 | 0.00 | 0.00 | 0.00 | 10 | 1030.2 | |
| 20260504041026 | 42 | 0.0 | 0.0 | 0.00 | 0.00 | 0.00 | 10 | 1029.9 | |
| 20260504040026 | 41 | 0.0 | 0.0 | 0.00 | 0.00 | 0.00 | 10 | 1029.9 | |
| 20260504035027 | 40 | 0.0 | 0.0 | 0.00 | 0.00 | 0.00 | 10 | 1029.6 | |
| 20260504034026 | 41 | 0.0 | 0.0 | 0.00 | 0.00 | 0.00 | 10 | 1029.4 | |
| 20260504033027 | 41 | 0.0 | 0.0 | 0.00 | 0.00 | 0.00 | 10 | 1029.1 | |
| 20260504032027 | 40 | 0.0 | 0.0 | 0.00 | 0.00 | 0.00 | 10 | 1028.7 | |
| 20260504031027 | 41 | 0.0 | 0.0 | 0.00 | 0.00 | 0.00 | 10 | 1028.5 | |
| 20260504030027 | 41 | 0.0 | 0.0 | 0.00 | 0.00 | 0.00 | 10 | 1028.4 | |
| 20260504025026 | 41 | 0.0 | 0.0 | 0.00 | 0.00 | 0.00 | 10 | 1028.2 | |
| 20260504024026 | 41 | 0.0 | 0.0 | 0.00 | 0.00 | 0.00 | 10 | 1028.1 | |
| 20260504023027 | 40 | 0.0 | 0.0 | 0.00 | 0.00 | 0.00 | 10 | 1027.8 | |
| 20260504022026 | 41 | 0.0 | 0.0 | 0.00 | 0.00 | 0.00 | 10 | 1027.7 | |
| 20260504021027 | 41 | 0.0 | 0.0 | 0.00 | 0.00 | 0.00 | 10 | 1027.7 | |
| 20260504020026 | 42 | 0.0 | 0.0 | 0.00 | 0.00 | 0.00 | 10 | 1027.7 | |
| 20260504015027 | 41 | 0.0 | 0.0 | 0.00 | 0.00 | 0.00 | 10 | 1027.6 | |
| 20260504014027 | 42 | 0.0 | 0.0 | 0.00 | 0.00 | 0.00 | 10 | 1027.8 | |
| 20260504013026 | 41 | 0.0 | 0.0 | 0.00 | 0.00 | 0.00 | 10 | 1027.7 | |
| 20260504012027 | 42 | 0.0 | 0.0 | 0.00 | 0.00 | 0.00 | 10 | 1027.5 | |
| 20260504011027 | 42 | 0.0 | 0.0 | 0.00 | 0.00 | 0.00 | 10 | 1027.4 | |
| 20260504010027 | 41 | 0.0 | 0.0 | 0.00 | 0.00 | 0.00 | 10 | 1027.3 | |
| 20260504005025 | 42 | 0.0 | 0.0 | 0.00 | 0.00 | 0.00 | 10 | 1027.1 | |
| 20260504004025 | 42 | 0.0 | 0.0 | 0.00 | 0.00 | 0.00 | 10 | 1027.0 | |
| 20260504003027 | 42 | 0.0 | 0.0 | 0.00 | 0.00 | 0.00 | 10 | 1027.1 | |
| 20260504002026 | 42 | 0.0 | 0.0 | 0.00 | 0.00 | 0.00 | 10 | 1027.1 | |
| 20260504001026 | 43 | 0.0 | 0.0 | 0.00 | 0.00 | 0.00 | 10 | 1027.0 | |
| 20260504000026 | 42 | 0.0 | 0.0 | 0.00 | 0.00 | 0.00 | 10 | 1026.7 | |
| 20260503235026 | 43 | 0.0 | 0.0 | 0.00 | 0.00 | 0.00 | 10 | 1026.6 | |
| 20260503234027 | 43 | 0.0 | 0.0 | 0.00 | 0.00 | 0.00 | 10 | 1026.4 | |
| 20260503233026 | 44 | 0.0 | 0.0 | 0.00 | 0.00 | 0.00 | 10 | 1026.4 | |
| 20260503232026 | 44 | 0.0 | 0.0 | 0.00 | 0.00 | 0.00 | 10 | 1026.3 | |
| 20260503231025 | 45 | 0.0 | 0.0 | 0.00 | 0.00 | 0.00 | 10 | 1026.4 | |
| 20260503230025 | 44 | 0.0 | 0.0 | 0.00 | 0.00 | 0.00 | 10 | 1026.4 | |
| 20260503225027 | 44 | 0.0 | 0.0 | 0.00 | 0.00 | 0.00 | 10 | 1026.3 | |
| 20260503224025 | 44 | 0.0 | 0.0 | 0.00 | 0.00 | 0.00 | 10 | 1026.3 | |
| 20260503223025 | 43 | 0.0 | 0.0 | 0.00 | 0.00 | 0.00 | 10 | 1026.1 | |
| 20260503222025 | 44 | 0.0 | 0.0 | 0.00 | 0.00 | 0.00 | 10 | 1026.2 | |
| 20260503221025 | 44 | 0.0 | 0.0 | 0.00 | 0.00 | 0.00 | 10 | 1026.2 | |
| 20260503220025 | 45 | 0.0 | 0.0 | 0.00 | 0.00 | 0.00 | 10 | 1026.3 | |
| 20260503215025 | 45 | 0.0 | 0.0 | 0.00 | 0.00 | 0.00 | 10 | 1026.5 | |
| 20260503214026 | 45 | 0.0 | 0.0 | 0.00 | 0.00 | 0.00 | 10 | 1026.6 | |
| 20260503213025 | 45 | 0.0 | 0.0 | 0.00 | 0.00 | 0.00 | 10 | 1026.5 | |
| 20260503212025 | 45 | 0.0 | 0.0 | 0.00 | 0.00 | 0.00 | 10 | 1026.6 | |
| 20260503211025 | 44 | 0.0 | 0.0 | 0.00 | 0.00 | 0.00 | 10 | 1026.3 | |
| 20260503210025 | 45 | 0.0 | 0.0 | 0.00 | 0.00 | 0.00 | 10 | 1026.3 | |
| 20260503205025 | 45 | 0.0 | 0.0 | 0.00 | 0.00 | 0.00 | 10 | 1026.1 | |
| 20260503204025 | 46 | 0.0 | 0.0 | 0.00 | 0.00 | 0.00 | 10 | 1025.9 | |
| 20260503203025 | 46 | 0.0 | 0.0 | 0.00 | 0.00 | 0.00 | 10 | 1025.8 | |
| 20260503202025 | 46 | 0.0 | 0.0 | 0.00 | 0.00 | 0.00 | 10 | 1025.6 | |
| 20260503201025 | 46 | 0.0 | 0.0 | 0.00 | 0.00 | 0.00 | 10 | 1025.3 | |
| 20260503200026 | 47 | 0.0 | 0.0 | 0.00 | 0.00 | 0.00 | 10 | 1025.2 | |
| 20260503195025 | 47 | 0.0 | 0.0 | 0.00 | 0.00 | 0.00 | 10 | 1025.0 | |
| 20260503194025 | 48 | 0.0 | 0.0 | 0.00 | 0.00 | 0.00 | 10 | 1024.8 | |
| 20260503193025 | 47 | 0.0 | 0.0 | 0.00 | 0.00 | 0.00 | 10 | 1024.5 | |
| 20260503192025 | 48 | 0.0 | 0.0 | 0.00 | 0.00 | 0.00 | 10 | 1024.2 | |
| 20260503191025 | 47 | 0.0 | 0.0 | 0.00 | 0.00 | 0.00 | 10 | 1023.8 | |
| 20260503190025 | 48 | 0.0 | 0.0 | 0.00 | 0.00 | 0.00 | 10 | 1023.3 | |
| 20260503185025 | 48 | 0.0 | 0.0 | 0.00 | 0.00 | 0.00 | 10 | 1023.0 | |
| 20260503184025 | 48 | 0.0 | 0.0 | 0.00 | 0.00 | 0.00 | 10 | 1022.6 | |
| 20260503183025 | 49 | 0.0 | 0.0 | 0.00 | 0.00 | 0.00 | 10 | 1022.1 | |
| 20260503182025 | 50 | 0.0 | 0.0 | 0.00 | 0.00 | 0.00 | 10 | 1021.4 | |
| 20260503181025 | 51 | 0.0 | 0.0 | 0.00 | 0.00 | 0.00 | 10 | 1021.1 | |
| 20260503180025 | 51 | 0.0 | 0.0 | 0.00 | 0.00 | 0.00 | 10 | 1020.9 | |
| 20260503175026 | 51 | 0.0 | 0.0 | 0.00 | 0.00 | 0.00 | 10 | 1020.8 | |
| 20260503174025 | 54 | 0.0 | 0.0 | 0.00 | 0.00 | 0.00 | 10 | 1020.2 | |
| 20260503173025 | 54 | 0.0 | 0.0 | 0.00 | 0.00 | 0.00 | 10 | 1020.0 | |
| 20260503172025 | 55 | 0.0 | 0.0 | 0.00 | 0.00 | 0.00 | 10 | 1020.1 | |
| 20260503171025 | 55 | 0.0 | 0.0 | 0.00 | 0.00 | 0.00 | 10 | 1019.9 | |
| 20260503131025 | 69 | 0.0 | 0.0 | 0.00 | 0.00 | 0.00 | 10 | 1019.2 | |
| 20260503081028 | 47 | 0.0 | 0.0 | 0.00 | 0.00 | 0.00 | 63 | 1032.4 | |
| 20260503072025 | 46 | 0.0 | 0.0 | 0.00 | 0.00 | 0.00 | 51 | 1031.6 | |
| 20260503071025 | 45 | 0.0 | 0.0 | 0.00 | 0.00 | 0.00 | 51 | 1031.5 | |
| 20260503055025 | 46 | 0.0 | 0.0 | 0.00 | 0.00 | 0.00 | 57 | 1030.1 | |
| 20260503054025 | 47 | 0.0 | 0.0 | 0.00 | 0.00 | 0.00 | 60 | 1030.1 | |
| 20260503053025 | 47 | 0.0 | 0.0 | 0.00 | 0.00 | 0.00 | 64 | 1029.6 | |
| 20260503052025 | 47 | 0.0 | 0.0 | 0.00 | 0.00 | 0.00 | 67 | 1029.0 |